Probability
45 48 68 65 65 68 61 58 61 65 71 74 65 55 65 61 65 65 71 71 65 65 65 65 65 65 71 71 74 77 74 74 68 77 81 74 81 77 77 77 71 71 74
39 29 65 61 61 55 55 55 55 55 48 45 35 39 52 55 61 61 65 61 61 58 61 65 65 58 61 61 58 65 68 48 58 65 74 74 81 77 65 71 71 65 71
19 19 42 52 48 52 45 42 45 48 45 35 39 35 42 58 58 61 58 58 55 58 58 58 55 55 58 58 55 48 48 45 45 68 71 55 68 71 74 71 74 65 71
13 10 16 42 45 42 39 35 45 42 42 35 32 35 39 45 48 45 48 48 48 48 42 42 45 48 52 55 48 48 42 45 42 55 52 52 39 71 71 68 71 68 71
13 13 23 35 32 35 35 39 32 23 26 23 23 23 26 29 32 29 29 29 26 26 26 26 35 39 39 39 35 29 32 35 48 45 42 42 45 65 61 58 65 65 65
19 16 19 23 23 32 32 26 19 19 26 23 16 19 19 19 26 29 23 23 23 23 19 23 29 32 32 35 32 29 32 48 29 35 39 48 39 65 52 48 58 61 61
13 13 16 26 23 26 29 26 26 23 13 13 10 10 13 16 19 23 23 23 23 23 23 23 26 32 35 35 29 26 32 35 16 29 26 45 52 58 42 52 52 55 65
10 6 10 23 23 23 23 16 19 23 13 13 13 10 13 16 13 13 19 19 23 23 23 16 26 29 29 26 23 26 26 35 10 10 26 29 61 58 48 45 45 52 55
6 6 6 13 13 23 23 19 16 16 13 6 6 6 6 13 10 10 13 13 10 19 19 19 29 26 23 16 19 19 26 39 6 3 6 23 61 55 45 45 48 48 48
6 3 3 10 6 13 13 13 16 13 6 6 3 0 3 3 16 13 13 13 6 13 19 16 23 23 26 16 19 16 23 10 3 3 3 26 55 52 48 45 55 55 52
3 0 0 0 3 3 0 3 3 6 6 0 0 3 3 0 3 3 6 10 10 10 10 16 26 26 19 10 6 23 13 6 3 6 3 45 45 48 45 39 45 48 45
6 6 0 3 3 0 0 0 0 0 0 0 0 0 0 0 0 0 3 10 13 10 10 13 19 19 6 3 10 13 6 3 3 6 10 52 39 32 35 39 35 39 45
0 6 3 3 0 0 0 0 0 0 0 0 0 0 0 0 0 0 0 3 3 0 3 3 10 3 3 3 3 3 6 3 3 3 10 52 39 39 32 23 29 32 32
0 0 0 3 3 0 0 0 0 0 0 0 0 0 0 0 0 0 0 0 0 0 0 0 0 3 3 3 3 6 6 6 3 0 10 35 35 39 29 32 29 29 29
0 0 0 3 3 0 0 0 0 0 0 0 0 0 0 0 0 0 0 0 0 0 0 0 0 3 3 3 3 6 3 3 0 3 3 39 45 32 29 26 26 23 26
0 0 0 0 3 3 0 0 0 0 0 0 0 0 0 0 0 0 0 0 0 0 0 0 0 0 0 6 3 0 3 3 3 3 6 6 35 32 35 29 26 32 29
0 0 0 0 0 3 0 0 0 0 0 0 0 0 0 0 0 0 0 0 0 0 0 0 0 3 0 3 6 0 0 0 0 3 10 6 6 16 35 26 16 19 16
0 0 0 0 0 0 0 0 0 0 0 0 0 0 0 0 0 0 0 0 0 0 0 0 0 3 3 3 3 3 3 3 0 3 6 6 6 6 10 16 10 19 13
0 0 0 0 0 0 0 0 0 0 0 0 0 0 0 0 0 0 0 0 0 3 3 0 3 3 0 0 0 0 0 3 0 0 3 3 3 3 0 0 6 16 19
3 0 0 0 0 0 0 0 0 0 0 0 0 0 0 0 0 0 0 0 3 3 3 3 3 3 0 0 0 0 0 0 0 0 0 0 0 0 0 0 0 3 10
3 3 0 0 0 0 0 0 0 0 0 0 0 0 0 0 3 0 3 3 3 3 3 3 3 0 0 0 0 0 0 0 0 0 0 0 0 0 0 0 0 0 0
3 3 3 3 0 0 0 0 0 0 0 0 0 0 0 0 3 3 0 3 3 3 3 3 0 0 0 0 0 0 0 0 0 0 0 0 0 0 0 0 0 0 0
0 3 3 3 3 0 3 0 0 0 0 0 0 0 0 0 0 0 0 3 3 3 3 0 0 0 0 0 0 0 0 0 0 0 0 0 0 0 0 0 0 0 0
3 0 0 3 3 0 3 0 0 0 0 0 0 0 0 0 0 0 0 0 0 0 0 0 0 0 0 0 0 0 0 0 0 0 0 0 0 0 0 0 0 0 0
3 3 3 0 3 3 0 0 3 0 0 0 0 0 0 0 0 0 0 0 0 0 0 0 0 0 0 0 0 0 0 0 0 0 0 0 0 0 0 0 0 0 0
10 6 3 3 0 3 3 0 0 0 0 0 0 0 0 0 0 0 0 0 0 0 0 0 0 0 0 0 0 0 0 0 0 0 0 0 0 0 0 0 0 0 0
Height
5890 5890 5891 5891 5892 5893 5894 5894 5894 5894 5894 5894 5894 5894 5894 5894 5893 5893 5893 5893 5893 5893 5893 5893 5893 5893 5894 5894 5895 5895 5895 5896 5897 5897 5898 5899 5900 5901 5902 5903 5904 5905 5906
5889 5890 5891 5891 5892 5893 5894 5894 5894 5894 5894 5894 5894 5894 5894 5894 5893 5893 5893 5893 5893 5893 5893 5893 5893 5894 5894 5894 5895 5895 5896 5896 5896 5897 5898 5899 5900 5901 5902 5903 5904 5905 5906
5889 5890 5891 5891 5892 5893 5894 5894 5894 5895 5895 5895 5894 5894 5894 5894 5893 5893 5893 5893 5893 5893 5893 5893 5893 5894 5894 5894 5895 5895 5895 5896 5896 5897 5898 5899 5900 5901 5902 5903 5904 5905 5906
5888 5889 5890 5891 5892 5893 5894 5894 5895 5895 5895 5895 5895 5894 5894 5894 5893 5893 5893 5893 5893 5893 5893 5893 5893 5893 5894 5894 5894 5895 5895 5896 5896 5897 5897 5898 5899 5900 5901 5902 5903 5904 5906
5888 5889 5890 5891 5892 5893 5893 5894 5894 5895 5895 5895 5895 5894 5894 5894 5893 5893 5893 5892 5892 5892 5892 5892 5892 5893 5893 5893 5894 5894 5895 5895 5895 5896 5897 5898 5899 5900 5901 5901 5903 5904 5905
5888 5889 5890 5891 5892 5892 5893 5894 5894 5894 5895 5895 5895 5894 5894 5893 5893 5893 5892 5892 5892 5891 5891 5892 5892 5892 5892 5892 5893 5893 5894 5894 5895 5896 5896 5897 5898 5899 5900 5901 5902 5903 5904
5887 5888 5889 5890 5891 5892 5893 5893 5894 5894 5894 5895 5895 5894 5894 5893 5893 5892 5892 5891 5891 5891 5891 5891 5891 5891 5891 5892 5892 5892 5893 5893 5894 5895 5895 5896 5897 5898 5899 5900 5901 5902 5903
5887 5888 5889 5890 5891 5892 5892 5893 5893 5894 5894 5894 5894 5894 5894 5893 5892 5892 5891 5891 5890 5890 5890 5890 5890 5890 5890 5891 5891 5891 5892 5892 5893 5894 5894 5895 5896 5897 5898 5899 5900 5901 5902
5886 5887 5888 5889 5890 5891 5892 5892 5893 5894 5894 5894 5894 5894 5893 5893 5892 5891 5891 5890 5890 5889 5889 5889 5889 5889 5889 5889 5889 5890 5890 5891 5891 5892 5893 5893 5894 5895 5897 5898 5899 5900 5901
5885 5886 5887 5889 5890 5890 5891 5892 5893 5893 5893 5894 5893 5893 5893 5892 5892 5891 5890 5890 5889 5889 5889 5888 5888 5888 5888 5888 5888 5888 5889 5889 5890 5891 5891 5892 5893 5894 5895 5896 5897 5899 5900
5884 5885 5887 5888 5889 5890 5891 5891 5892 5893 5893 5893 5893 5893 5892 5892 5891 5891 5890 5889 5888 5888 5888 5887 5887 5887 5887 5887 5886 5886 5887 5888 5888 5889 5890 5890 5891 5892 5893 5894 5896 5897 5899
5883 5885 5886 5887 5888 5889 5890 5891 5891 5892 5892 5893 5893 5893 5892 5891 5891 5890 5889 5888 5887 5887 5887 5886 5886 5886 5885 5885 5885 5885 5886 5886 5887 5887 5888 5889 5889 5890 5891 5892 5894 5895 5897
5882 5883 5885 5886 5887 5888 5889 5890 5891 5892 5892 5892 5892 5892 5891 5890 5890 5889 5888 5887 5887 5886 5886 5885 5885 5884 5884 5884 5884 5884 5884 5885 5885 5885 5886 5887 5887 5888 5889 5890 5892 5893 5895
5881 5882 5883 5885 5886 5888 5889 5890 5890 5891 5891 5891 5891 5891 5890 5890 5889 5889 5888 5887 5886 5886 5885 5884 5884 5883 5883 5882 5882 5882 5882 5883 5883 5884 5884 5885 5885 5886 5887 5888 5890 5891 5893
5879 5881 5882 5884 5885 5887 5888 5889 5890 5890 5891 5891 5891 5890 5890 5889 5889 5888 5887 5886 5885 5885 5884 5884 5883 5882 5881 5880 5880 5880 5881 5881 5881 5882 5883 5883 5884 5885 5886 5887 5888 5889 5890
5878 5880 5881 5883 5884 5886 5887 5888 5889 5890 5890 5890 5890 5890 5889 5888 5888 5887 5886 5885 5885 5884 5883 5882 5882 5881 5880 5880 5879 5879 5879 5879 5879 5880 5881 5881 5882 5883 5884 5885 5886 5887 5888
5877 5879 5880 5882 5883 5885 5886 5887 5888 5889 5889 5889 5889 5889 5888 5888 5887 5886 5885 5884 5884 5883 5882 5881 5880 5879 5879 5878 5878 5878 5878 5878 5878 5879 5880 5880 5881 5882 5882 5883 5884 5885 5886
5875 5877 5879 5880 5882 5884 5885 5886 5887 5888 5888 5888 5888 5888 5888 5887 5886 5885 5884 5884 5883 5882 5881 5880 5879 5878 5877 5877 5877 5876 5876 5876 5877 5877 5878 5879 5880 5880 5881 5882 5883 5884 5884
5873 5875 5877 5879 5881 5882 5884 5885 5886 5887 5887 5887 5887 5887 5887 5886 5885 5885 5884 5883 5882 5881 5880 5879 5878 5877 5876 5876 5875 5875 5875 5875 5876 5876 5877 5878 5879 5879 5880 5881 5882 5882 5881
5871 5873 5875 5878 5879 5881 5882 5883 5884 5886 5886 5887 5886 5886 5886 5885 5885 5884 5883 5882 5881 5880 5879 5878 5877 5876 5875 5874 5874 5874 5874 5874 5875 5875 5876 5877 5878 5878 5879 5880 5880 5880 5879
5870 5872 5874 5876 5878 5880 5881 5882 5883 5884 5885 5886 5885 5885 5885 5884 5884 5883 5882 5881 5880 5879 5878 5877 5876 5875 5874 5874 5874 5874 5874 5874 5874 5875 5875 5876 5877 5877 5878 5879 5879 5879 5878
5868 5870 5873 5875 5877 5878 5879 5881 5882 5883 5884 5884 5884 5884 5884 5883 5883 5882 5881 5881 5880 5879 5878 5877 5875 5874 5874 5873 5873 5873 5873 5874 5874 5874 5875 5875 5876 5876 5877 5877 5878 5877 5877
5867 5869 5872 5874 5875 5877 5878 5879 5881 5882 5882 5883 5883 5883 5883 5882 5882 5881 5881 5880 5879 5878 5877 5876 5875 5874 5873 5873 5873 5873 5873 5873 5873 5874 5874 5875 5875 5875 5875 5876 5876 5876 5876
5865 5867 5870 5872 5873 5875 5876 5878 5879 5880 5881 5882 5882 5881 5881 5881 5881 5880 5880 5879 5878 5877 5877 5876 5875 5874 5873 5873 5872 5872 5872 5872 5873 5873 5874 5874 5874 5874 5874 5874 5874 5874 5874
5863 5865 5868 5870 5871 5873 5874 5876 5877 5878 5879 5880 5880 5880 5880 5880 5879 5879 5878 5878 5877 5877 5876 5875 5874 5874 5873 5872 5872 5872 5871 5871 5872 5872 5872 5872 5872 5872 5872 5872 5872 5872 5872
5860 5863 5865 5867 5869 5870 5872 5873 5875 5876 5877 5878 5878 5878 5878 5878 5878 5877 5877 5877 5876 5876 5875 5875 5874 5873 5873 5872 5871 5871 5871 5871 5870 5870 5870 5871 5870 5870 5870 5870 5870 5870 5870
Wind_Speed
6 6 5 6 6 6 6 5 4 4 3 3 3 3 3 3 3 3 3 2 2 2 2 1 1 1 1 2 2 2 3 3 3 4 5 6 6 6 6 6 6 4 4
6 6 6 7 7 6 6 5 4 3 2 2 2 2 2 2 2 2 2 2 1 1 1 0 0 1 1 1 1 2 3 3 3 4 5 6 6 6 6 7 6 5 5
7 7 7 7 7 7 6 5 3 2 2 1 1 1 1 1 1 1 1 1 1 1 1 1 1 1 1 1 1 2 3 3 3 5 6 6 6 6 6 7 7 7 6
8 7 8 8 7 7 6 5 3 2 1 0 0 0 0 1 1 1 2 2 2 2 2 2 2 2 2 2 3 3 3 4 4 5 6 6 6 7 7 7 8 6 6
8 8 8 9 8 7 6 5 3 2 1 0 1 1 1 2 2 2 2 3 3 3 3 3 3 3 3 4 4 4 5 5 6 6 7 7 7 7 7 7 8 7 6
8 8 9 8 7 7 5 4 4 2 1 0 1 2 1 2 3 3 3 3 3 3 3 3 3 4 4 4 4 4 5 5 6 6 7 8 7 7 7 8 8 8 8
9 9 9 8 7 6 5 4 4 3 2 1 1 1 2 3 3 4 3 3 3 3 3 3 3 4 4 4 5 5 5 6 6 7 7 8 8 8 8 8 8 9 9
10 10 9 8 7 6 5 4 3 2 2 2 2 2 3 4 4 4 3 3 3 3 3 3 4 4 5 5 6 6 6 7 7 8 8 8 8 9 9 9 9 9 9
12 11 9 8 7 6 5 4 4 3 2 2 3 3 3 4 5 4 4 3 3 3 4 4 5 5 6 6 6 7 7 7 7 8 8 8 9 10 10 9 9 9 9
12 11 10 8 7 6 6 5 4 3 2 2 3 4 4 5 5 5 5 5 4 4 4 5 4 5 5 6 6 7 7 7 8 8 8 9 9 10 10 10 10 11 10
12 11 10 9 7 7 6 5 4 3 2 2 3 4 5 5 5 5 5 5 4 4 4 4 4 5 6 6 6 6 6 7 7 8 8 8 9 10 11 11 11 11 11
12 12 10 9 8 8 6 5 4 3 2 3 4 5 6 6 5 5 5 5 5 4 4 4 5 5 6 6 6 6 6 7 7 7 7 8 9 10 11 12 12 12 12
12 12 11 10 9 8 7 5 4 3 2 3 4 5 6 6 6 6 6 5 5 5 5 6 6 6 6 6 6 6 6 6 7 7 7 8 8 9 10 11 12 12 12
12 11 11 10 10 8 7 5 4 3 2 3 4 5 5 6 6 6 6 5 5 6 6 6 6 6 6 6 6 6 6 6 7 7 7 8 8 9 9 10 11 11 12
12 11 11 10 9 8 7 6 5 3 3 3 4 4 5 6 6 6 6 6 6 6 7 7 6 6 6 6 6 6 6 6 6 6 7 7 8 9 9 9 10 11 11
13 12 11 10 10 8 7 6 5 4 4 4 4 5 5 6 6 6 6 6 6 7 7 7 7 6 6 5 6 6 6 6 7 7 7 7 8 8 9 9 9 10 10
13 13 12 11 10 9 8 6 6 5 4 4 5 5 5 6 6 6 6 6 7 7 8 7 6 6 6 6 6 6 6 6 6 6 7 7 7 7 7 8 9 10 10
14 13 13 12 10 10 8 7 6 5 4 4 5 5 6 6 6 6 6 7 7 7 7 7 6 6 6 6 6 6 6 5 5 5 6 6 6 6 6 7 8 9 10
13 12 12 12 11 10 9 7 6 5 5 5 5 6 6 6 6 6 6 7 7 7 7 7 7 6 6 5 5 5 5 4 5 5 5 5 5 6 6 7 7 7 8
11 12 12 12 10 9 9 8 7 6 6 5 5 6 6 6 6 6 6 7 7 7 7 6 6 6 6 5 4 4 4 4 4 4 5 5 5 6 7 7 7 6 6
11 11 11 10 10 9 9 8 8 7 6 6 6 6 6 6 6 6 6 7 7 6 6 6 6 6 6 5 4 4 3 3 4 4 5 5 5 6 7 7 7 7 7
11 11 11 10 9 9 9 8 8 8 7 7 7 7 6 6 6 6 6 6 6 6 6 6 6 5 5 4 4 3 3 4 4 4 4 4 5 5 6 7 7 8 9
12 11 11 10 9 9 9 9 8 8 7 7 7 7 7 6 6 6 6 5 6 6 6 6 6 5 4 4 4 4 4 4 3 4 4 4 5 5 6 7 7 7 8
13 12 12 11 10 10 10 10 9 8 8 8 7 7 7 7 6 6 6 6 6 6 6 6 6 5 4 4 3 3 4 4 3 4 4 5 5 5 6 7 6 7 7
14 13 13 12 12 11 11 11 10 9 8 8 8 7 7 7 7 6 6 6 6 6 6 6 5 5 5 4 4 4 4 4 4 5 5 5 5 6 6 7 6 7 7
15 14 13 12 12 12 12 11 10 10 9 8 7 7 7 7 7 6 6 6 6 6 6 5 5 5 5 5 5 5 5 5 5 5 6 6 6 6 7 7 7 7 7
Wind_Direction
197 197 197 191 173 165 161 150 136 138 141 132 121 123 111 94 84 80 72 69 74 74 78 80 102 132 127 123 131 142 159 162 173 188 184 185 188 189 193 193 187 179 169
202 200 197 195 180 171 163 151 143 142 143 135 121 119 108 93 81 74 56 44 42 34 9 309 25 147 159 169 161 161 171 187 206 198 190 187 190 194 200 198 198 194 182
207 206 201 194 186 177 173 166 155 148 146 130 102 109 113 80 58 53 32 13 345 328 319 300 283 239 223 241 233 210 201 207 215 203 196 196 197 200 207 207 205 205 201
209 205 197 192 188 189 184 176 172 166 157 156 6 342 13 13 9 3 346 328 315 307 297 297 290 273 263 262 253 240 230 225 221 209 207 204 203 208 212 211 206 203 203
211 205 202 198 193 193 190 187 196 203 175 324 344 350 349 346 341 340 334 324 314 303 292 287 286 275 268 266 263 253 243 240 227 217 215 213 213 217 220 215 211 209 209
211 210 208 205 201 196 193 199 212 211 203 302 350 355 8 351 337 333 328 329 325 311 300 291 287 285 280 274 266 258 252 248 237 228 222 223 224 225 225 219 216 217 217
213 213 211 209 208 196 199 208 212 210 221 273 321 357 10 356 340 332 327 336 336 323 304 295 292 289 285 277 271 264 255 246 243 236 235 237 231 228 226 221 223 219 221
213 214 210 211 210 202 201 202 210 220 252 286 316 333 356 358 347 337 335 331 320 317 309 294 289 283 285 282 277 271 264 254 249 242 243 236 233 231 230 227 225 224 224
218 217 214 216 209 203 208 218 224 236 258 284 318 328 339 351 350 343 334 325 319 317 313 301 295 287 286 284 279 275 271 263 255 248 242 239 237 233 231 229 226 226 227
222 217 217 218 218 212 210 220 226 234 261 311 329 332 335 345 351 346 337 330 321 314 310 307 297 289 286 282 277 270 265 263 261 253 249 243 239 237 236 236 232 230 231
222 220 218 222 221 214 212 216 220 228 283 305 329 337 342 348 347 348 344 336 328 320 313 310 298 287 283 282 276 265 259 258 257 255 250 245 244 243 240 238 237 235 234
225 226 224 220 219 218 218 219 223 236 293 309 323 335 340 341 340 343 349 344 337 332 324 316 307 297 291 287 281 270 260 254 254 253 248 247 248 246 242 239 239 239 238
228 231 229 224 217 218 220 217 228 235 294 323 331 336 338 341 341 341 342 346 338 330 327 323 315 304 295 289 280 273 264 255 251 250 247 247 248 248 246 243 241 241 241
232 232 230 230 226 223 223 223 234 250 291 312 324 329 338 341 341 339 340 335 333 329 325 324 319 309 303 296 285 279 269 261 253 250 249 251 251 251 251 247 244 242 244
234 230 227 227 231 230 230 234 245 255 278 296 313 321 330 337 339 337 336 334 330 327 325 325 322 315 312 306 292 284 273 268 264 253 251 253 252 250 249 247 244 243 243
232 230 230 228 228 230 229 238 240 249 266 288 308 316 323 331 336 337 336 333 331 328 325 328 328 327 320 306 293 283 279 272 265 259 256 256 256 254 250 250 248 247 242
230 231 235 229 228 227 227 236 239 245 257 282 301 312 321 329 333 333 336 335 334 334 336 330 327 326 319 307 297 290 286 278 265 256 255 256 258 257 256 258 256 250 246
228 230 234 229 227 226 230 237 241 254 269 285 299 310 316 323 327 331 333 334 334 333 333 333 328 324 320 314 306 298 286 275 266 259 258 259 259 259 259 258 257 256 252
228 229 229 228 227 230 234 238 245 257 270 281 296 308 313 318 324 324 329 335 333 330 330 330 328 328 321 316 310 298 287 276 264 261 262 264 262 262 261 260 259 263 261
227 225 222 223 229 235 234 241 245 249 261 274 292 303 311 314 318 319 324 332 332 329 329 329 327 326 323 317 310 300 293 284 267 263 265 265 261 262 263 263 261 262 257
224 217 218 222 228 229 232 238 245 247 258 273 287 296 304 311 314 317 319 324 330 330 330 329 327 325 324 319 313 306 298 287 277 270 271 271 267 265 264 265 267 262 256
221 217 222 226 230 229 231 236 242 246 259 271 281 290 298 306 310 314 318 320 324 329 332 334 335 331 326 318 313 308 301 296 288 282 280 277 276 273 272 272 270 267 260
219 216 224 227 231 231 236 239 241 249 260 269 280 285 292 299 306 309 311 315 317 324 330 334 339 340 335 323 315 313 312 310 299 294 289 283 281 281 280 278 275 274 266
220 221 226 228 233 236 240 246 246 251 259 268 279 287 288 291 298 304 307 308 311 318 327 331 330 332 336 330 321 316 310 306 303 300 294 291 288 288 288 286 280 277 271
223 223 227 230 235 238 239 246 248 253 260 268 273 278 286 288 291 296 299 301 301 308 317 325 328 332 332 328 324 320 312 307 302 301 301 299 297 294 292 289 287 282 278
226 224 227 232 236 238 240 243 245 251 257 265 273 279 280 286 295 295 291 296 294 299 306 313 320 324 323 323 324 319 317 314 310 307 304 301 300 296 295 293 289 288 286